GW6861 Weather Reports


time (UTC)temp
F
wind
direction
speed
knots
gust
knots
rain 1hr
in
rain 24hr
in
rain mn
in
humidity
%
barometer
mb
20260504193003 69 273 1.7 10.4 0.00 0.00 0.00 36 1004.9
20260504192503 68 256 1.7 10.4 0.00 0.00 0.00 35 1005.0
20260504192003 69 241 0.9 5.2 0.00 0.00 0.00 36 1005.0
20260504191719 68 241 0.0 5.2 0.00 0.00 0.00 37 1005.2
20260504191003 68 169 0.0 3.5 0.00 0.00 0.00 35 1005.1
20260504190503 68 203 0.9 7.8 0.00 0.00 0.00 36 1005.3
20260504190003 67 235 1.7 12.2 0.00 0.00 0.00 37 1005.1
20260504185503 68 297 1.7 12.2 0.00 0.00 0.00 36 1005.2
20260504185003 67 275 1.7 11.3 0.00 0.00 0.00 36 1005.1
20260504184503 67 250 0.9 6.1 0.00 0.00 0.00 35 1005.4
20260504184003 67 282 1.7 10.4 0.00 0.00 0.00 37 1005.4
20260504183503 66 285 1.7 10.4 0.00 0.00 0.00 36 1005.3
20260504183003 66 249 0.9 8.7 0.00 0.00 0.00 36 1005.4
20260504182503 67 224 0.9 8.7 0.00 0.00 0.00 39 1005.5
20260504182003 66 224 1.7 8.7 0.00 0.00 0.00 40 1005.5
20260504181713 66 222 1.7 18.2 0.00 0.00 0.00 36 1005.5
20260504181003 67 238 1.7 18.2 0.00 0.00 0.00 37 1005.6
20260504180503 67 224 1.7 7.8 0.00 0.00 0.00 38 1005.5
20260504180003 68 238 1.7 9.6 0.00 0.00 0.00 35 1005.6
20260504175712 67 257 1.7 9.6 0.00 0.00 0.00 38 1005.5
20260504175003 67 230 0.0 6.1 0.00 0.00 0.00 38 1005.5
20260504174505 66 188 0.9 8.7 0.00 0.00 0.00 35 1005.6
20260504174003 66 198 0.9 8.7 0.00 0.00 0.00 38 1005.6
20260504173503 66 283 0.9 7.8 0.00 0.00 0.00 36 1005.6
20260504173005 66 291 0.9 7.8 0.00 0.00 0.00 36 1005.7
20260504172503 66 273 0.9 4.3 0.00 0.00 0.00 35 1005.7
20260504172003 66 256 0.9 7.8 0.00 0.00 0.00 36 1005.7
20260504171505 68 250 1.7 7.8 0.00 0.00 0.00 34 1005.7
20260504171003 68 220 1.7 7.8 0.00 0.00 0.00 36 1005.7
20260504170714 68 216 1.7 7.0 0.00 0.00 0.00 36 1005.7
20260504160215 66 237 2.6 14.8 0.00 0.00 0.00 38 1005.9
20260504150503 63 224 1.7 8.7 0.00 0.00 0.00 41 1006.7
20260504141003 62 221 0.9 5.2 0.00 0.00 0.00 40 1007.1
20260504140505 62 289 0.0 2.6 0.00 0.00 0.00 44 1007.3
20260504130503 55 172 0.0 3.5 0.00 0.01 0.00 51 1007.8
20260504110503 46 0 0.0 0.0 0.00 0.01 0.00 67 1008.4
20260504100503 46 166 0.0 1.7 0.00 0.01 0.00 65 1008.4
20260504082005 44 0 0.0 0.0 0.00 0.01 0.00 70 1008.5
20260504081503 44 0 0.0 0.0 0.00 0.01 0.00 68 1008.6
20260504081003 45 221 0.0 0.9 0.00 0.01 0.00 66 1008.4
20260504080505 45 221 0.0 0.9 0.00 0.01 0.00 65 1008.4
20260504050503 37 0 0.0 0.0 0.00 0.01 0.00 77 1008.5
20260504050005 37 0 0.0 0.0 0.00 0.01 0.00 75 1008.5
20260504045503 36 0 0.0 0.0 0.00 0.01 0.00 78 1008.6
20260504045003 36 0 0.0 0.0 0.00 0.01 0.00 78 1008.6
20260504044505 36 0 0.0 0.0 0.00 0.01 0.00 77 1008.6
20260504044003 35 0 0.0 0.0 0.00 0.01 0.00 77 1008.6
20260504043503 35 0 0.0 0.0 0.00 0.01 0.00 78 1008.7
20260504043214 35 0 0.0 0.0 0.00 0.01 0.00 77 1008.7
20260504042503 36 0 0.0 0.0 0.00 0.01 0.00 76 1008.7
20260504042003 36 0 0.0 0.0 0.00 0.01 0.00 75 1008.5
20260504041504 36 0 0.0 0.0 0.00 0.01 0.00 75 1008.6
20260504041212 36 0 0.0 0.0 0.00 0.01 0.00 75 1008.5
20260504040503 36 0 0.0 0.0 0.00 0.01 0.00 75 1008.5
20260504040005 36 0 0.0 0.0 0.00 0.01 0.00 75 1008.4
20260504035503 36 0 0.0 0.0 0.00 0.01 0.01 75 1008.4
20260504035003 36 0 0.0 0.0 0.00 0.01 0.01 76 1008.4
20260504034503 36 0 0.0 0.0 0.00 0.01 0.01 76 1008.5
20260504034003 36 0 0.0 0.0 0.00 0.01 0.01 76 1008.5
20260504033503 36 0 0.0 0.0 0.00 0.01 0.01 78 1008.5
20260504033003 36 0 0.0 0.0 0.00 0.01 0.01 77 1008.5
20260504032503 36 0 0.0 0.0 0.00 0.01 0.01 75 1008.4
20260504032003 36 0 0.0 0.0 0.00 0.01 0.01 75 1008.3
20260504031503 36 0 0.0 0.0 0.00 0.01 0.01 75 1008.3
20260504031003 36 0 0.0 0.0 0.00 0.01 0.01 74 1008.3
20260504030503 36 0 0.0 0.0 0.00 0.01 0.01 74 1008.3
20260504030214 36 0 0.0 0.0 0.00 0.01 0.01 74 1008.2
20260504025713 37 0 0.0 0.0 0.00 0.01 0.01 74 1008.2
20260504025214 37 0 0.0 0.0 0.00 0.01 0.01 73 1008.2
20260504024713 37 0 0.0 0.0 0.00 0.01 0.01 72 1008.3
20260504024003 38 0 0.0 0.0 0.00 0.01 0.01 71 1008.3
20260504023503 38 0 0.0 0.0 0.00 0.01 0.01 70 1008.4
20260504023003 38 0 0.0 0.0 0.00 0.01 0.01 70 1008.4
20260504022503 38 0 0.0 0.0 0.00 0.01 0.01 68 1008.4
20260504022003 38 0 0.0 0.0 0.00 0.01 0.01 68 1008.4
20260504021503 39 0 0.0 0.0 0.00 0.02 0.01 67 1008.4
20260504021003 39 0 0.0 0.0 0.00 0.02 0.01 66 1008.3
20260504020713 39 0 0.0 0.0 0.00 0.02 0.01 65 1008.3
20260504020003 40 0 0.0 0.0 0.00 0.02 0.01 63 1008.2
20260504015503 40 0 0.0 0.0 0.00 0.02 0.01 62 1008.2
20260504015003 41 0 0.0 0.0 0.00 0.02 0.01 62 1008.2
20260504014505 40 0 0.0 0.0 0.00 0.02 0.01 61 1008.1
20260504014003 41 0 0.0 0.0 0.00 0.02 0.01 60 1008.1
20260504013503 41 0 0.0 0.0 0.00 0.02 0.01 59 1008.0
20260504013005 41 0 0.0 0.0 0.00 0.02 0.01 58 1008.0
20260504012503 42 0 0.0 0.0 0.00 0.02 0.01 61 1008.0
20260504012003 42 0 0.0 0.0 0.00 0.02 0.01 58 1007.9
20260504011506 43 0 0.0 0.0 0.00 0.02 0.01 56 1007.8
20260504011003 43 0 0.0 0.0 0.00 0.02 0.01 56 1007.7
20260504010503 42 0 0.0 0.0 0.00 0.02 0.01 56 1007.6
20260504010005 42 0 0.0 0.0 0.00 0.02 0.01 57 1007.6
20260504005503 43 0 0.0 0.0 0.00 0.02 0.01 56 1007.5
20260504005003 43 0 0.0 0.0 0.00 0.02 0.01 57 1007.5
20260504004714 43 0 0.0 0.0 0.00 0.02 0.01 56 1007.4
20260504004213 43 0 0.0 0.0 0.00 0.02 0.01 55 1007.4
20260504003503 43 0 0.0 0.0 0.00 0.02 0.01 55 1007.3
20260504003215 43 0 0.0 0.0 0.00 0.02 0.01 55 1007.3
20260504002503 44 0 0.0 0.0 0.00 0.02 0.01 54 1007.3
20260504002003 44 0 0.0 0.0 0.00 0.02 0.01 53 1007.2
20260504001504 45 0 0.0 0.0 0.00 0.02 0.01 52 1007.1
20260504001003 46 0 0.0 0.0 0.00 0.02 0.01 50 1007.1
20260504000503 46 0 0.0 0.0 0.00 0.02 0.01 49 1007.0
20260504000005 46 0 0.0 0.0 0.00 0.02 0.01 49 1006.9
20260503235503 47 0 0.0 0.0 0.00 0.02 0.01 49 1006.9
20260503235003 47 0 0.0 0.0 0.00 0.02 0.01 48 1007.0
20260503234505 47 0 0.0 0.0 0.00 0.02 0.01 48 1006.9
20260503234003 47 28 0.0 0.9 0.00 0.02 0.01 48 1006.9
20260503233503 48 28 0.0 0.9 0.00 0.02 0.01 48 1006.9
20260503233006 48 228 0.0 0.9 0.00 0.02 0.01 48 1006.8
20260503232503 47 350 0.0 4.3 0.00 0.02 0.01 49 1006.9
20260503232003 48 351 0.0 4.3 0.00 0.02 0.01 47 1006.8
20260503231503 48 253 0.0 0.9 0.00 0.02 0.01 48 1006.8
20260503231003 47 0 0.0 0.0 0.00 0.02 0.01 52 1006.7
20260503230503 48 352 0.9 9.6 0.00 0.02 0.01 49 1006.7
20260503230212 48 338 1.7 9.6 0.00 0.03 0.01 47 1006.7
20260503225503 48 314 0.9 7.0 0.00 0.03 0.01 46 1006.7
20260503225003 48 316 0.9 7.0 0.00 0.04 0.01 47 1006.6
20260503224503 48 328 0.9 6.1 0.00 0.04 0.01 49 1006.6
20260503224003 48 332 0.9 6.1 0.00 0.04 0.01 50 1006.6
20260503223715 48 323 0.9 5.2 0.00 0.04 0.01 46 1006.5
20260503223003 48 359 0.9 8.7 0.00 0.05 0.01 48 1006.5
20260503222503 48 339 0.9 8.7 0.00 0.05 0.01 46 1006.5
20260503222212 48 282 0.9 7.8 0.00 0.05 0.01 45 1006.4
20260503221503 49 326 1.7 9.6 0.00 0.05 0.01 46 1006.4
20260503221003 49 4 0.9 9.6 0.00 0.05 0.01 48 1006.4
20260503220503 49 351 1.7 9.6 0.00 0.05 0.01 45 1006.5
20260503220214 49 345 1.7 9.6 0.00 0.05 0.01 47 1006.4
20260503215503 49 331 0.9 9.6 0.00 0.05 0.01 46 1006.3
20260503215003 49 337 1.7 9.6 0.00 0.05 0.01 45 1006.2
20260503214503 49 322 0.9 5.2 0.00 0.06 0.01 46 1006.3
20260503214003 50 326 0.9 7.0 0.00 0.07 0.01 46 1006.2
20260503213713 50 328 1.7 8.7 0.00 0.08 0.01 43 1006.1
20260503213003 50 344 0.9 8.7 0.00 0.10 0.01 42 1006.0
20260503212505 50 337 0.9 7.0 0.00 0.10 0.01 44 1006.1
20260503212003 50 251 1.7 7.8 0.00 0.10 0.01 43 1006.0
20260503211503 50 247 2.6 9.6 0.00 0.11 0.01 43 1005.9
20260503211008 50 283 1.7 9.6 0.00 0.11 0.01 42 1005.9
20260503210508 50 310 1.7 9.6 0.00 0.11 0.01 43 1005.8
20260503210003 50 325 2.6 11.3 0.00 0.12 0.01 43 1005.7
20260503205503 50 313 2.6 11.3 0.00 0.13 0.01 42 1005.8
20260503205003 50 296 1.7 8.7 0.00 0.14 0.01 42 1005.7
20260503204503 50 339 1.7 10.4 0.00 0.15 0.01 47 1005.7
20260503204003 50 337 2.6 10.4 0.00 0.16 0.01 41 1005.6
20260503203503 50 338 2.6 9.6 0.00 0.17 0.01 42 1005.5
20260503203214 50 335 2.6 9.6 0.00 0.17 0.01 42 1005.5
20260503202503 50 333 1.7 10.4 0.00 0.18 0.01 46 1005.5
20260503202003 51 336 1.7 11.3 0.00 0.18 0.01 44 1005.5
20260503201503 51 351 2.6 11.3 0.00 0.18 0.01 45 1005.5
20260503201003 51 345 2.6 21.7 0.00 0.18 0.01 44 1005.4
20260503200503 50 351 4.3 21.7 0.00 0.18 0.01 40 1005.5
20260503200004 50 359 5.2 13.9 0.00 0.18 0.01 42 1005.5
20260503195503 51 5 4.3 12.2 0.00 0.18 0.01 40 1005.4
20260503195003 51 356 2.6 11.3 0.00 0.18 0.01 47 1005.5
20260503194505 50 350 3.5 10.4 0.00 0.19 0.01 42 1005.4
20260503194003 50 347 2.6 11.3 0.00 0.20 0.01 43 1005.5
20260503193503 50 347 4.3 13.9 0.00 0.21 0.01 46 1005.4